Yakima, WA

4:25 PM PDT on March 25, 2017 (GMT -0700)
Yakima Air Term-McAllister

Weather History for KYKM - May, 2014

Change the Weather History Date:

Monday, May 19, 2014

  Actual Average Record
Temperature  
Mean Temperature 58 °F 58 °F  
Max Temperature 76 °F 74 °F 88 °F (2008)
Min Temperature 40 °F 43 °F 29 °F (1987)
Degree Days  
Heating Degree Days 7 7  
Month to date heating degree days 112 187  
Since 1 July heating degree days 5529 5869  
Cooling Degree Days 0 1  
Month to date cooling degree days 10 8  
Year to date cooling degree days 10 9  
Growing Degree Days 7 (Base 50)    
Moisture  
Dew Point 37 °F    
Average Humidity 55    
Maximum Humidity 85    
Minimum Humidity 25    
Precipitation  
Precipitation 0.00 in 0.01 in 0.75 in (1948)
Month to date precipitation 0.12 0.33  
Year to date precipitation 2.91 3.42  
Snow  
Snow 0.00 in 0.00 in 0.00 in (2002)
Month to date snowfall 0.0 0.0  
Year to date snowfall 19.9 8.6  
Since 1 July snowfall 19.9 21.6  
Snow Depth 0.00 in    
Sea Level Pressure  
Sea Level Pressure 29.91 in    
Wind  
Wind Speed 6 mph (NW)    
Max Wind Speed 16 mph    
Max Gust Speed 21 mph    
Visibility 10 miles    
Events      
T = Trace of Precipitation, MM = Missing Value Source: NWS Daily Summary

Daily Weather History Graph

Daily Weather History Graph

Search for Another Location

Airport or City:

Trip Planner

Search our weather history database for the weather conditions in past years. The results will help you decide how hot, cold, wet, or windy it might be!

Date:

Astronomy

May. 19, 2014 Rise Set
Actual Time 5:23 AM PDT 8:34 PM PDT
Civil Twilight 4:47 AM PDT 9:10 PM PDT
Nautical Twilight 4:00 AM PDT 9:58 PM PDT
Astronomical Twilight 3:02 AM PDT 10:56 PM PDT
Moon 12:20 AM PDT (5/19) 10:33 AM PDT (5/19)
Length of Visible Light 16h 23m
Length of Day
15h 10m
Waning Gibbous, 70% of the Moon is Illuminated
May 19
Waning Gibbous
May 21
Last Quarter
May 28
New
Jun 5
First Quarter
Jun 12
Full

Hourly Weather History & Observations

Time (PDT) Temp. Windchill Dew Point Humidity Pressure Visibility Wind Dir Wind Speed Gust Speed Precip Events Conditions
12:53 AM 48.9 °F - 39.0 °F 69% 29.84 in 10.0 mi SSW 3.5 mph - N/A   Clear
1:53 AM 41.0 °F 38.0 °F 36.0 °F 82% 29.85 in 10.0 mi West 4.6 mph - N/A   Clear
2:53 AM 45.0 °F - 37.0 °F 74% 29.86 in 10.0 mi Calm Calm - N/A   Clear
3:53 AM 45.0 °F 40.6 °F 36.0 °F 71% 29.87 in 10.0 mi West 8.1 mph - N/A   Mostly Cloudy
4:53 AM 41.0 °F 39.0 °F 35.1 °F 79% 29.89 in 10.0 mi NW 3.5 mph - N/A   Clear
6:53 AM 46.9 °F - 37.9 °F 71% 29.92 in 10.0 mi Calm Calm - N/A   Partly Cloudy
7:53 AM 54.0 °F - 39.0 °F 57% 29.93 in 10.0 mi Calm Calm - N/A   Partly Cloudy
8:53 AM 61.0 °F - 39.0 °F 44% 29.93 in 10.0 mi East 3.5 mph - N/A   Partly Cloudy
9:53 AM 63.0 °F - 37.9 °F 40% 29.93 in 10.0 mi Calm Calm - N/A   Partly Cloudy
10:53 AM 66.2 °F - 37.4 °F 35% 29.93 in 10.0 mi West 5.8 mph - N/A   Clear
11:53 AM 68.0 °F - 37.0 °F 32% 29.93 in 10.0 mi SW 5.8 mph - N/A   Clear
12:53 PM 70.0 °F - 36.0 °F 29% 29.92 in 10.0 mi NW 8.1 mph - N/A   Scattered Clouds
1:53 PM 72.0 °F - 35.1 °F 26% 29.91 in 10.0 mi Variable 5.8 mph - N/A   Clear
2:53 PM 73.9 °F - 36.0 °F 25% 29.90 in 10.0 mi SSE 9.2 mph - N/A   Clear
3:53 PM 73.0 °F - 36.0 °F 26% 29.89 in 10.0 mi SE 4.6 mph - N/A   Clear
4:53 PM 75.0 °F - 37.9 °F 26% 29.89 in 10.0 mi NNW 13.8 mph 20.7 mph N/A   Mostly Cloudy
5:53 PM 73.9 °F - 37.0 °F 26% 29.90 in 10.0 mi NNW 10.4 mph - N/A   Partly Cloudy
6:53 PM 73.0 °F - 37.9 °F 28% 29.91 in 10.0 mi NNW 11.5 mph - N/A   Scattered Clouds
7:53 PM 71.1 °F - 37.0 °F 29% 29.92 in 10.0 mi NNW 9.2 mph - N/A   Clear
8:53 PM 64.9 °F - 39.0 °F 39% 29.94 in 10.0 mi NW 10.4 mph - N/A   Clear
9:53 PM 63.0 °F - 39.0 °F 41% 29.96 in 10.0 mi NNW 5.8 mph - N/A   Clear
10:53 PM 60.8 °F - 39.2 °F 45% 29.98 in 10.0 mi NNW 8.1 mph - N/A   Clear
11:53 PM 60.1 °F - 39.9 °F 47% 29.99 in 10.0 mi North 8.1 mph - N/A   Clear